This demonstration page uses our WeatherBlox Daily Observations layout. Learn more.

Left ArrowRight Arrow

39.95238, -75.16362

Hourly Observations for February 19, 2017

Temp ( °F °C ) Dew Point ( °F °C ) Humidity (%) Winds ( mph kmh ) Pressure ( in mb ) Visibility ( mi km ) Precip ( " mm )
12:54 am 00:54 Cloudy 50 10 37 2.8 61 61 WSW 5 7 29.75 1008 10 16 0.00 0.00
1:54 am 01:54 Cloudy 50 10 37 2.8 61 61 WSW 5 7 29.76 1008 10 16 0.00 0.00
2:54 am 02:54 Cloudy 50 10 37 2.8 61 61 Calm 29.75 1007 10 16 0.00 0.00
3:54 am 03:54 Mostly Cloudy 50 10 35 1.7 57 57 WSW 8 13 29.77 1008 10 16 0.00 0.00
4:54 am 04:54 Cloudy 52 11.1 35 1.7 53 53 W 8 13 29.77 1008 10 16 0.00 0.00
5:54 am 05:54 Cloudy 58 14.4 33 0.6 39 39 W 9 15 29.79 1009 10 16 0.00 0.00
6:54 am 06:54 Mostly Cloudy 59 15 34 1.1 39 39 WNW 8 13 29.80 1009 10 16 0.00 0.00
7:54 am 07:54 Cloudy 59 15 36 2.2 42 42 W 13 20 29.84 1010 10 16 0.00 0.00
8:54 am 08:54 Cloudy 60 15.6 38 3.3 44 44 NW 13 20 29.85 1011 10 16 0.00 0.00
9:54 am 09:54 Mostly Cloudy 60 15.6 39 3.9 46 46 WNW 10 17 29.87 1012 10 16 0.00 0.00
10:54 am 10:54 Partly Cloudy 63 17.2 39 3.9 41 41 NW 9 15 29.87 1011 10 16 0.00 0.00
11:54 am 11:54 Partly Cloudy 66 18.9 39 3.9 37 37 NW 8 13 29.86 1011 10 16 0.00 0.00
12:54 pm 12:54 Partly Cloudy 66 18.9 40 4.4 39 39 WSW 8 13 29.84 1011 10 16 0.00 0.00
1:54 pm 13:54 Mostly Sunny 68 20 39 3.9 35 35 WNW 12 19 29.83 1010 10 16 0.00 0.00
2:54 pm 14:54 Mostly Sunny 69 20.6 37 2.8 31 31 W 14 22 29.85 1011 10 16 0.00 0.00
3:54 pm 15:54 Mostly Sunny 70 21.1 34 1.1 27 27 W 18 30 29.86 1011 10 16 0.00 0.00
4:54 pm 16:54 Partly Cloudy 68 20 32 0 26 26 W 13 20 29.87 1012 10 16 0.00 0.00
5:54 pm 17:54 Mostly Clear 66 18.9 33 0.6 29 29 W 10 17 29.90 1012 10 16 0.00 0.00
6:54 pm 18:54 Mostly Clear 65 18.3 33 0.6 31 31 WNW 8 13 29.92 1013 10 16 0.00 0.00
7:54 pm 19:54 Clear 58 14.4 34 1.1 41 41 W 6 9 29.93 1014 10 16 0.00 0.00
8:54 pm 20:54 Clear 58 14.4 35 1.7 42 42 W 7 11 29.95 1014 10 16 0.00 0.00
9:54 pm 21:54 Clear 59 15 33 0.6 38 38 WNW 9 15 29.97 1015 10 16 0.00 0.00
10:54 pm 22:54 Clear 54 12.2 33 0.6 45 45 NW 9 15 29.99 1016 10 16 0.00 0.00
11:54 pm 23:54 Clear 53 11.7 33 0.6 47 47 N 7 11 30.00 1016 10 16 0.00 0.00

Powered by AerisWeather